Change the Weather History Date:

Tuesday, December 17, 2013

  Actual Average Record
Temperature  
Mean Temperature 44 °F -  
Max Temperature 48 °F 45 °F 56 °F (1979)
Min Temperature 39 °F 36 °F 11 °F (1964)
Degree Days  
Heating Degree Days 22    
Moisture  
Dew Point 39 °F    
Average Humidity 86    
Maximum Humidity 97    
Minimum Humidity 73    
Precipitation  
Precipitation 0.00 in - - ()
Sea Level Pressure  
Sea Level Pressure 30.19 in    
Wind  
Wind Speed 5 mph (SSE)    
Max Wind Speed 12 mph    
Max Gust Speed -    
Visibility 5 miles    
Events      
Averages and records for this station are not official NWS values.
T = Trace of Precipitation, MM = Missing Value Source: NWS Daily Summary

Daily Weather History Graph

Daily Weather History Graph

Search for Another Location

Airport or City:

Trip Planner

Search our weather history database for the weather conditions in past years. The results will help you decide how hot, cold, wet, or windy it might be!

Date:

Astronomy

Dec. 17, 2013 Rise Set
Actual Time 7:52 AM PST 4:18 PM PST
Civil Twilight 7:16 AM PST 4:54 PM PST
Nautical Twilight 6:36 AM PST 5:34 PM PST
Astronomical Twilight 5:59 AM PST 6:11 PM PST
Moon 5:08 PM PST (12/17) 7:48 AM PST (12/17)
Length of Visible Light 9h 38m
Length of Day
8h 26m
Full, 100% of the Moon is Illuminated
Dec 17
Full
Dec 25
Last Quarter
Jan 1
New
Jan 7
First Quarter
Jan 15
Full

Hourly Weather History & Observations

Time (PST) Temp. Windchill Dew Point Humidity Pressure Visibility Wind Dir Wind Speed Gust Speed Precip Events Conditions
12:15 AM 42.8 °F 41.1 °F 39.2 °F 87% 30.28 in 3.0 mi East 3.5 mph - N/A   Overcast
12:53 AM 42.1 °F 39.2 °F 39.0 °F 89% 30.27 in 3.0 mi SSE 4.6 mph - N/A   Overcast
1:40 AM 41.0 °F 39.0 °F 39.2 °F 93% 30.25 in 1.8 mi SSE 3.5 mph - N/A   Overcast
1:53 AM 41.0 °F 38.0 °F 39.0 °F 93% 30.25 in 1.8 mi SSE 4.6 mph - N/A   Overcast
1:58 AM 41.0 °F 37.1 °F 39.2 °F 93% 30.25 in 3.0 mi SE 5.8 mph - N/A   Overcast
2:43 AM 39.2 °F - 37.4 °F 93% 30.25 in 1.8 mi Calm Calm - N/A   Overcast
2:53 AM 41.0 °F - 37.9 °F 89% 30.24 in 1.8 mi Calm Calm - N/A   Overcast
3:00 AM 41.0 °F - 39.2 °F 93% 30.24 in 2.5 mi Calm Calm - N/A   Overcast
3:25 AM 39.2 °F 35.0 °F 37.4 °F 93% 30.23 in 1.2 mi SE 5.8 mph - N/A   Overcast
3:50 AM 39.2 °F - 37.4 °F 93% 30.23 in 0.8 mi Calm Calm - N/A   Mist
3:53 AM 39.9 °F - 39.0 °F 97% 30.23 in 0.8 mi Calm Calm - N/A   Mist
4:53 AM 41.0 °F 37.1 °F 37.9 °F 89% 30.22 in 0.8 mi SE 5.8 mph - N/A   Mist
5:04 AM 41.0 °F 37.1 °F 37.4 °F 87% 30.22 in 1.2 mi SE 5.8 mph - N/A   Overcast
5:53 AM 39.9 °F 35.8 °F 37.9 °F 93% 30.21 in 1.0 mi SE 5.8 mph - N/A   Mist
6:53 AM 41.0 °F 35.8 °F 37.9 °F 89% 30.20 in 2.5 mi SSE 8.1 mph - N/A   Mist
7:53 AM 41.0 °F 39.0 °F 39.0 °F 93% 30.20 in 2.5 mi SE 3.5 mph - N/A   Overcast
8:53 AM 42.1 °F 39.2 °F 39.0 °F 89% 30.20 in 3.0 mi SE 4.6 mph - N/A   Overcast
9:53 AM 43.0 °F 39.5 °F 39.0 °F 86% 30.21 in 4.0 mi ESE 5.8 mph - N/A   Overcast
10:53 AM 43.0 °F 39.5 °F 39.0 °F 86% 30.21 in 4.0 mi ESE 5.8 mph - N/A   Overcast
11:53 AM 44.1 °F 39.0 °F 39.0 °F 82% 30.19 in 4.0 mi SE 9.2 mph - N/A   Haze
12:53 PM 44.1 °F 38.6 °F 39.0 °F 82% 30.17 in 7.0 mi SE 10.4 mph - N/A   Overcast
1:53 PM 44.1 °F 40.8 °F 37.9 °F 79% 30.15 in 7.0 mi Variable 5.8 mph - N/A   Mostly Cloudy
2:53 PM 44.1 °F 38.1 °F 37.9 °F 79% 30.14 in 10.0 mi South 11.5 mph - N/A   Overcast
3:53 PM 44.1 °F 40.1 °F 37.9 °F 79% 30.14 in 10.0 mi SSE 6.9 mph - N/A   Overcast
4:53 PM 45.0 °F 41.8 °F 37.9 °F 76% 30.14 in 10.0 mi SE 5.8 mph - N/A   Overcast
5:53 PM 46.0 °F 43.9 °F 37.9 °F 73% 30.14 in 10.0 mi ESE 4.6 mph - N/A   Overcast
6:48 PM 46.4 °F 41.9 °F 39.2 °F 76% 30.12 in 10.0 mi SSE 9.2 mph - N/A   Overcast
6:53 PM 46.0 °F 41.9 °F 39.0 °F 76% 30.12 in 10.0 mi SSE 8.1 mph - N/A   Overcast
7:53 PM 46.9 °F - 39.9 °F 77% 30.12 in 10.0 mi South 5.8 mph - N/A   Overcast
8:53 PM 48.0 °F - 41.0 °F 77% 30.13 in 10.0 mi SSW 5.8 mph - N/A   Overcast
9:53 PM 46.9 °F - 42.1 °F 83% 30.14 in 10.0 mi SSW 6.9 mph - N/A   Overcast
10:19 PM 46.4 °F - 42.8 °F 87% 30.14 in 10.0 mi Calm Calm - N/A   Overcast
10:53 PM 46.0 °F 43.1 °F 41.0 °F 83% 30.14 in 10.0 mi West 5.8 mph - N/A   Overcast
11:53 PM 46.0 °F 43.1 °F 41.0 °F 83% 30.13 in 10.0 mi SW 5.8 mph - N/A   Overcast